Location: Cherry Springs State Park
(41.6616°N, 77.8240°W)
Time: 00:25:31
(UTC-05:00)

Daily predictions for brighter satellites

Satellite Brightness Start Highest point End
(mag) Time Altitude Azimuth Time Altitude Azimuth Time Altitude Azimuth
Cosmos 2369 Rocket 4.3 03:14:21 22° NE 03:14:21 22° NE 03:16:21 10° NNE
Lacrosse 5 4.1 03:28:18 21° ENE 03:28:18 21° ENE 03:30:08 10° NE
USA 234 4.2 03:35:30 10° ENE 03:41:30 38° SE 03:41:54 37° SE
ATLAS 5 CENTAUR R/B 3.7 03:46:24 28° NE 03:46:24 28° NE 03:48:51 10° NE
Cosmos 1943 Rocket 3.1 03:51:54 45° ENE 03:51:54 45° ENE 03:55:55 10° NNE
CZ-4C R/B 3.5 03:54:45 30° SE 03:55:18 30° ESE 04:00:16 10° NE
CZ-4B R/B 3.6 03:58:21 10° NNE 04:03:30 64° ENE 04:03:30 64° ENE
Lacrosse 5 rocket 4.1 04:12:43 11° NNE 04:12:43 11° NNE 04:13:27 10° NE
ADEOS II 2.3 04:09:39 10° NNE 04:14:12 65° NE 04:14:12 65° NE
Cosmos 676 Rocket 4.2 04:20:01 31° N 04:22:32 68° ENE 04:27:50 10° SSE
Okean O Rocket 3.8 04:18:45 10° N 04:19:45 17° N 04:19:45 17° N
Cosmos 1140 Rocket 4.3 04:26:44 10° N 04:31:50 50° ENE 04:36:54 10° SE
Cosmos 2221 Rocket 4.0 04:38:26 28° SSE 04:40:44 63° E 04:45:16 10° NNE
PAYLOAD B 4.4 04:38:46 10° N 04:43:44 50° NW 04:43:44 50° NW
Meteor 1-26 Rocket 4.1 04:41:38 21° S 04:45:33 88° E 04:51:11 10° N
Nadezhda 2 Rocket 4.3 04:40:09 10° NNW 04:46:12 66° W 04:52:16 10° S
Okean 1-7 3.4 04:45:42 20° S 04:48:30 63° E 04:52:44 10° NNE
CZ-4B DEB 4.4 04:45:43 10° N 04:51:02 49° WNW 04:51:10 49° WNW
Cosmos 1656 Rocket 3.6 04:50:01 31° SSW 04:52:54 89° ESE 04:58:38 10° NNE
Cosmos 2219 3.5 04:48:17 10° NNW 04:53:57 67° ENE 04:59:33 10° SSE
Cosmos 2369 Rocket 3.6 04:56:10 22° NW 04:56:10 22° NW 04:59:41 10° N
Meteor 1-31 Rocket 2.6 04:53:44 10° NNE 04:57:39 89° ESE 04:58:26 56° S
Cosmos 2227 Rocket 4.3 04:53:02 10° N 04:57:42 25° NE 05:02:18 10° ESE
ATLAS CENTAUR R/B 4.0 04:59:20 35° WSW 05:01:24 41° SW 05:16:25 10° SSE
GEOS 3 Rocket 3.7 04:56:51 10° SSE 05:01:47 51° WSW 05:02:58 42° W
Cosmos 1850 Rocket 4.5 04:59:49 10° NNW 05:05:08 63° ENE 05:10:23 10° SSE
Cosmos 1782 Rocket 3.4 05:02:56 10° NNW 05:07:22 67° W 05:11:45 10° S
Cosmos 1745 Rocket 4.1 05:01:14 10° N 05:07:24 73° E 05:13:31 10° SSE
Cosmos 1417 Rocket 4.3 05:01:34 10° SSW 05:07:43 75° W 05:13:52 10° N
Lacrosse 5 2.6 05:07:32 34° NW 05:08:23 36° NNW 05:13:05 10° NNE
Cosmos 1954 Rocket 4.0 05:06:09 10° NNW 05:11:21 56° WSW 05:16:32 10° S
Cosmos 1420 Rocket 3.9 05:13:54 12° SSW 05:18:41 75° WNW 05:23:53 10° NNE
Meteor 2-10 Rocket 3.7 05:17:37 25° SW 05:20:05 44° WNW 05:24:58 10° N
SKYMED 2 3.8 05:15:50 10° SSE 05:20:09 73° ENE 05:24:30 10° N
Okean-O 2.7 05:16:41 10° N 05:20:59 51° WNW 05:23:59 19° SW
ERS-2 4.0 05:20:37 10° NNW 05:21:59 17° NNW 05:21:59 17° NNW
NOAA 6 4.0 05:18:29 10° NNE 05:23:40 86° WNW 05:28:48 10° SSW
Tiangong 1 0.8 05:24:16 62° WNW 05:24:38 76° N 05:27:34 10° E
Feng Yun 1-1 Rocket 4.4 05:18:50 10° N 05:24:38 61° WNW 05:30:26 10° SSW
USA 234 3.3 05:18:15 10° NE 05:24:42 65° NW 05:29:16 21° WSW
ATLAS 5 CENTAUR R/B 3.3 05:27:58 19° NW 05:29:03 20° NW 05:32:55 10° NNE
SJ-6F 4.4 05:25:45 10° N 05:29:50 58° WNW 05:33:52 10° SSW
Cosmos 1943 Rocket 3.4 05:33:27 20° WNW 05:34:38 22° NW 05:38:52 10° N
Okean 2 Rocket 3.3 05:31:44 10° NNW 05:35:54 43° W 05:40:03 10° SSW
Radarsat Rocket 4.3 05:30:31 10° NNE 05:37:48 87° WNW 05:44:10 10° SSW
Thor Agena Rocket 4.0 05:35:59 10° SSW 05:40:50 39° W 05:45:40 10° NNW
CZ-4C R/B 2.6 05:39:58 19° WSW 05:43:33 43° NW 05:49:18 10° NNE
Cosmos 1607 4.0 05:38:35 10° SSW 05:44:42 84° ESE 05:50:55 10° NE
Meteor 1-28 Rocket 3.0 05:41:23 10° S 05:45:06 80° WSW 05:48:52 10° NNW
Cosmos 1452 Rocket 4.4 05:42:34 18° WSW 05:45:21 28° WNW 05:49:54 10° N
ATLAS 3B R/B 3.0 05:40:41 10° SSW 05:48:17 87° SE 05:55:38 10° NE
Cosmos 1110 Rocket 4.5 05:46:15 10° S 05:51:20 65° ESE 05:56:29 10° NNE
Okean 1 Rocket 4.3 05:48:02 10° N 05:52:17 45° ENE 05:56:29 10° SSE
Lacrosse 5 rocket 2.0 05:48:55 10° NW 05:52:24 43° NE 05:55:51 10° ESE
Meteor 1-20 Rocket 4.4 05:48:10 10° NNW 05:53:35 46° W 05:58:53 10° SSW
Meteor 1-27 Rocket 4.1 05:48:04 10° S 05:53:49 75° E 05:59:43 10° NNE
ADEOS II 3.7 05:51:10 10° NNW 05:53:59 15° WNW 05:55:09 14° WNW
Cosmos 2151 Rocket 3.6 05:51:08 10° NNW 05:55:34 58° W 05:59:57 10° S
CSL-04 Rocket 4.0 05:50:42 10° NNE 05:56:05 70° ESE 06:01:32 10° S
S3M 4.4 05:50:33 10° SW 05:56:28 41° WNW 06:02:23 10° N
Cosmos 1741 Rocket 4.3 05:51:57 10° NNW 05:56:57 46° WSW 06:01:57 10° S
Cosmos 2082 4.2 05:53:30 10° NNW 05:59:09 63° ENE 06:04:43 10° SE
COSMO-SKYMED 1 3.2 06:04:25 10° SSW 06:08:19 32° W 06:12:15 10° NNW
Cosmos 1606 3.3 06:06:34 10° SW 06:10:07 35° WNW 06:13:44 10° N
Cosmos 1602 3.7 06:06:35 10° NNW 06:10:32 73° W 06:14:27 10° S
Cosmos 1782 3.7 06:07:12 10° SW 06:10:36 27° WNW 06:14:03 10° NNW
CZ-2C R/B 3.1 06:07:53 10° NNE 06:12:46 61° E 06:17:46 10° S
Cosmos 2369 3.9 06:08:30 10° SSW 06:14:08 81° ESE 06:19:49 10° NNE
Cosmos 2297 Rocket 2.4 06:16:12 10° NNW 06:21:53 83° ENE 06:27:32 10° SSE
